TITAN 3C TRANSTAGE DEB, 43514

Orbit data source: Space-Track

TITAN 3C TRANSTAGE DEB, 43514 is space debris in GEO originally from a launch on Sun, 09 Feb 1969 UTC launched from the Air Force Eastern Test Range (AFETR). Debris objects in space refer to the collection of defunct objects orbiting the Earth. Examples of debris include non-operational satellites, rocket bodies, and fragments generated from explosions, collisions, or faulty payload assembly.

Loading next visibility...
Identifier
43514, 1969-013S
Orbit
GEO
Country
Flag of USUS
Related business
Manufacturer
Martin Marietta
Mission
Spacecraft
Bus & Motor
Unknown
Mass
Unknown
Launch date (UTC)
1969-02-09 (57 years ago)
Launch vehicle
Unknown
Launch site
Air Force Eastern Test Range (AFETR)
Object type
Payload
Rocket body
Debris
Shape & HBR
Unknown shape, 1.1 m
Radar Cross Section
RCS unknown

Expand to show TLE details & history
Last TLE update: 14 hours ago

TLE from 14 hours ago
0 TITAN 3C TRANSTAGE DEB
1 43514U 69013S   26034.93382728 -.00000230  00000-0  00000-0 0  9999
2 43514   1.2004  58.8254 0189338  52.9369 309.4421  0.97799688877057
Epoch: 2026-02-03T22:24Z
TLE epoch observation values (Epoch: 2026-02-03T22:24:42.676Z)
Latitude
Longitude
-50.75575°
Altitude
35,987.479 km
Speed
3.085 km/s
True Right ascension
03h 58m 07s
True Declination
0° 00' 00"
Sunlit
Object was in daylight at epoch
Visualization orbit readout
Latitude
Unknown
Longitude
Unknown
Altitude
Unknown
Speed
Unknown
Apparent Right ascension
Unknown
Apparent Declination
Unknown
Sunlit
N/A
Visualization observer readout
Local Sidereal Time
14:40:14
Azimuth
Unknown
Elevation
Unknown
Doppler factor
Unknown
Orbital elements
Apogee altitude
37,306.98 km
Perigee altitude
35,683.469 km
Semi-major axis
42,873.361 km
Eccentricity
0.01893
Inclination
1.2004°
RAAN
58.8254°
Arg. of periapsis
52.9369°
True anomaly
307.74124°
Mean anomaly
309.4421°
Eccentric anomaly
308.59422°
Mean motion
0.24449 °/min
Orbital period
1,472.45 mins
BSTAR
0
Loading maneuver chart data...
Computing Atmospheric mass density...

Documentation

Showing up to 5 results
|